Location: �quirre
(50.4736°N, 2.2351°E)
Time: 20:08:00
(UTC+00:00)

Resurs 1-4 Rocket - Pass Details

Date: 07 August 2020
Orbit: 799 x 815 km, 98.6° (Epoch: 22 September)

Event Time Altitude Azimuth Distance (km) Brightness Sun altitude
Rises 03:09:40 0° 6° (N) 3,338 6.1 -11.0°
Reaches altitude 10° 03:12:29 10° 351° (N) 2,400 5.1 -10.7°
Maximum altitude 03:16:24 22° 303° (WNW) 1,718 3.7 -10.2°
Drops below altitude 10° 03:20:19 10° 255° (WSW) 2,382 4.0 -9.7°
Enters shadow 03:20:28 - 254° (WSW) 2,427 4.0 -9.7°
